Hourly Weather Adairsville

Today, 23 April, Friday

Time Temperature Precipitation Wind Pressure Humidity
00:00 +5°C° 0 mm 0 mps 742 mmHg 79%
01:00 +5°C° 0 mm 0 mps 742 mmHg 78%
02:00 +5°C° 0 mm 0 mps 742 mmHg 77%
03:00 +6°C° 0 mm 1 mps 742 mmHg 77%
04:00 +7°C° 0 mm 1 mps 743 mmHg 74%
05:00 +8°C° 0 mm 1 mps 743 mmHg 71%
06:00 +7°C° 0 mm 0 mps 743 mmHg 69%
07:00 +9°C° 0 mm 1 mps 744 mmHg 67%
08:00 +10°C° 0 mm 1 mps 744 mmHg 65%
09:00 +11°C° 0 mm 1 mps 744 mmHg 63%
10:00 +14°C° 0 mm 1 mps 744 mmHg 54%
11:00 +16°C° 0 mm 2 mps 743 mmHg 46%
12:00 +19°C° 0 mm 2 mps 743 mmHg 37%
13:00 +20°C° 0 mm 2 mps 742 mmHg 37%
14:00 +21°C° 0 mm 2 mps 741 mmHg 37%
15:00 +22°C° 0 mm 1 mps 741 mmHg 37%
16:00 +21°C° 0 mm 1 mps 740 mmHg 46%
17:00 +19°C° 0 mm 1 mps 740 mmHg 56%
18:00 +16°C° 0 mm 1 mps 740 mmHg 65%
19:00 +15°C° 0 mm 1 mps 740 mmHg 66%
20:00 +14°C° 0 mm 1 mps 740 mmHg 67%
21:00 +13°C° 0 mm 1 mps 740 mmHg 68%
22:00 +13°C° 0 mm 1 mps 739 mmHg 66%
23:00 +13°C° 0 mm 2 mps 739 mmHg 65%

Tomorrow, 24 April, Saturday

Time Temperature Precipitation Wind Pressure Humidity
00:00 +13°C° 0 mm 2 mps 738 mmHg 64%
01:00 +12°C° 0.3 mm 2 mps 738 mmHg 72%
02:00 +11°C° 0.3 mm 3 mps 737 mmHg 80%
03:00 +10°C° 0.3 mm 3 mps 737 mmHg 89%
04:00 +10°C° 4.6 mm 4 mps 736 mmHg 91%
05:00 +9°C° 4.6 mm 5 mps 735 mmHg 94%
06:00 +9°C° 4.6 mm 6 mps 733 mmHg 97%
07:00 +9°C° 4.5 mm 6 mps 733 mmHg 96%
08:00 +10°C° 4.5 mm 5 mps 733 mmHg 96%
09:00 +12°C° 4.5 mm 4 mps 733 mmHg 95%
10:00 +14°C° 0 mm 4 mps 733 mmHg 92%
11:00 +16°C° 0 mm 3 mps 733 mmHg 88%
12:00 +18°C° 0 mm 3 mps 732 mmHg 84%
13:00 +19°C° 0 mm 3 mps 733 mmHg 78%
14:00 +20°C° 0 mm 4 mps 733 mmHg 71%
15:00 +21°C° 0 mm 4 mps 733 mmHg 65%
16:00 +20°C° 0 mm 3 mps 733 mmHg 71%
17:00 +18°C° 0 mm 2 mps 733 mmHg 78%
18:00 +18°C° 0 mm 1 mps 733 mmHg 84%
19:00 +16°C° 0 mm 1 mps 733 mmHg 87%
20:00 +15°C° 0 mm 1 mps 733 mmHg 91%
21:00 +14°C° 0 mm 1 mps 734 mmHg 94%
22:00 +13°C° 0 mm 1 mps 734 mmHg 95%
23:00 +13°C° 0 mm 1 mps 735 mmHg 96%

Day after tomorrow, 25 April, Sunday

Time Temperature Precipitation Wind Pressure Humidity
00:00 +12°C° 0 mm 2 mps 735 mmHg 97%
01:00 +12°C° 0 mm 2 mps 736 mmHg 97%
02:00 +10°C° 0 mm 2 mps 736 mmHg 96%
03:00 +10°C° 0 mm 3 mps 736 mmHg 96%
04:00 +10°C° 0 mm 3 mps 736 mmHg 92%
05:00 +11°C° 0 mm 3 mps 737 mmHg 88%
06:00 +12°C° 0 mm 3 mps 737 mmHg 84%
07:00 +13°C° 0 mm 3 mps 738 mmHg 75%
08:00 +16°C° 0 mm 3 mps 738 mmHg 67%
09:00 +18°C° 0 mm 4 mps 738 mmHg 59%
10:00 +19°C° 0 mm 3 mps 738 mmHg 54%
11:00 +20°C° 0 mm 3 mps 738 mmHg 50%
12:00 +22°C° 0 mm 3 mps 738 mmHg 45%
13:00 +22°C° 0 mm 3 mps 738 mmHg 45%
14:00 +22°C° 0 mm 3 mps 738 mmHg 44%
15:00 +24°C° 0 mm 3 mps 738 mmHg 44%
16:00 +21°C° 0 mm 2 mps 738 mmHg 53%
17:00 +19°C° 0 mm 2 mps 738 mmHg 63%
18:00 +18°C° 0 mm 1 mps 738 mmHg 73%
19:00 +15°C° 0 mm 1 mps 738 mmHg 76%
20:00 +14°C° 0 mm 1 mps 739 mmHg 78%
21:00 +13°C° 0 mm 1 mps 739 mmHg 81%
22:00 +12°C° 0 mm 1 mps 739 mmHg 84%
23:00 +11°C° 0 mm 1 mps 739 mmHg 86%

26 April, Monday

Time Temperature Precipitation Wind Pressure Humidity
00:00 +11°C° 0 mm 1 mps 739 mmHg 89%
01:00 +10°C° 0 mm 1 mps 739 mmHg 90%
02:00 +10°C° 0 mm 1 mps 740 mmHg 90%
03:00 +9°C° 0 mm 1 mps 740 mmHg 91%
04:00 +10°C° 0 mm 1 mps 740 mmHg 88%
05:00 +10°C° 0 mm 1 mps 741 mmHg 85%
06:00 +11°C° 0 mm 1 mps 741 mmHg 82%
07:00 +14°C° 0 mm 1 mps 741 mmHg 73%
08:00 +17°C° 0 mm 2 mps 742 mmHg 64%
09:00 +20°C° 0 mm 3 mps 742 mmHg 54%
10:00 +22°C° 0 mm 3 mps 742 mmHg 49%
11:00 +25°C° 0 mm 2 mps 741 mmHg 43%
12:00 +26°C° 0 mm 2 mps 741 mmHg 37%
13:00 +27°C° 0 mm 2 mps 741 mmHg 36%
14:00 +27°C° 0 mm 2 mps 740 mmHg 35%
15:00 +28°C° 0 mm 2 mps 740 mmHg 34%
16:00 +26°C° 0 mm 1 mps 740 mmHg 44%
17:00 +23°C° 0 mm 1 mps 740 mmHg 54%
18:00 +21°C° 0 mm 1 mps 740 mmHg 64%
19:00 +20°C° 0 mm 1 mps 740 mmHg 68%
20:00 +19°C° 0 mm 1 mps 741 mmHg 71%
21:00 +16°C° 0 mm 1 mps 741 mmHg 74%
22:00 +16°C° 0 mm 1 mps 741 mmHg 76%
23:00 +16°C° 0 mm 1 mps 741 mmHg 78%

27 April, Tuesday

Time Temperature Precipitation Wind Pressure Humidity
00:00 +15°C° 0 mm 1 mps 741 mmHg 80%
01:00 +15°C° 0 mm 1 mps 741 mmHg 83%
02:00 +15°C° 0 mm 1 mps 741 mmHg 86%
03:00 +15°C° 0 mm 2 mps 741 mmHg 89%
04:00 +16°C° 0 mm 2 mps 741 mmHg 90%
05:00 +16°C° 0 mm 1 mps 742 mmHg 91%
06:00 +18°C° 0 mm 1 mps 742 mmHg 91%
07:00 +19°C° 0 mm 2 mps 742 mmHg 82%
08:00 +22°C° 0 mm 3 mps 742 mmHg 74%
09:00 +25°C° 0 mm 3 mps 742 mmHg 65%
10:00 +27°C° 0 mm 3 mps 742 mmHg 59%
11:00 +29°C° 0 mm 4 mps 741 mmHg 53%
12:00 +30°C° 0 mm 4 mps 740 mmHg 47%
13:00 +32°C° 0 mm 4 mps 740 mmHg 45%
14:00 +32°C° 0 mm 4 mps 739 mmHg 44%
15:00 +32°C° 0 mm 4 mps 739 mmHg 42%
16:00 +30°C° 0 mm 4 mps 739 mmHg 49%
17:00 +28°C° 0 mm 4 mps 739 mmHg 57%
18:00 +26°C° 0 mm 4 mps 739 mmHg 64%
19:00 +25°C° 0 mm 3 mps 739 mmHg 69%
20:00 +24°C° 0 mm 3 mps 739 mmHg 74%
21:00 +21°C° 0 mm 2 mps 739 mmHg 79%
22:00 +21°C° 0 mm 2 mps 739 mmHg 82%
23:00 +20°C° 0 mm 2 mps 739 mmHg 84%

28 April, Wednesday

Time Temperature Precipitation Wind Pressure Humidity
00:00 +20°C° 0 mm 2 mps 739 mmHg 86%
01:00 +20°C° 0 mm 2 mps 739 mmHg 85%
02:00 +20°C° 0 mm 2 mps 739 mmHg 83%
03:00 +20°C° 0 mm 2 mps 738 mmHg 82%
04:00 +19°C° 0 mm 2 mps 739 mmHg 83%
05:00 +19°C° 0 mm 2 mps 739 mmHg 84%
06:00 +19°C° 0 mm 3 mps 739 mmHg 85%
07:00 +20°C° 0 mm 3 mps 739 mmHg 81%
08:00 +22°C° 0 mm 3 mps 740 mmHg 77%
09:00 +24°C° 0 mm 3 mps 740 mmHg 73%
10:00 +25°C° 0.1 mm 4 mps 739 mmHg 67%
11:00 +27°C° 0.1 mm 4 mps 739 mmHg 61%
12:00 +29°C° 0.1 mm 5 mps 738 mmHg 55%
13:00 +29°C° 0 mm 5 mps 737 mmHg 54%
14:00 +29°C° 0 mm 5 mps 736 mmHg 52%
15:00 +30°C° 0 mm 5 mps 735 mmHg 50%
16:00 +28°C° 0.1 mm 4 mps 735 mmHg 58%
17:00 +26°C° 0.1 mm 4 mps 735 mmHg 65%
18:00 +23°C° 0.1 mm 4 mps 735 mmHg 73%
19:00 +23°C° 0.1 mm 4 mps 735 mmHg 76%
20:00 +22°C° 0.1 mm 5 mps 735 mmHg 80%
21:00 +21°C° 0.1 mm 5 mps 735 mmHg 83%
22:00 +21°C° 0 mm 5 mps 735 mmHg 83%
23:00 +21°C° 0 mm 5 mps 735 mmHg 82%
Show more